Flag for Lebanon Weather past 2 weeks in Beirut, Lebanon

Now
91 °F

Sunny.


Feels Like: 103 °F
Forecast: 88 / 95 °F
Wind: 14 mph from North

Location: Beirut Airport

Current Time: Aug 2, 2015 at 5:26:56 PM

Latest Report: Aug 2, 2015 at 5:00 PM


Visibility: 5 mi

Pressure: 29.77 "Hg

Humidity: 59%

Dew point: 75 °F

Location of BeirutLocation

Historic Weather in Beirut — Graph

°F

Beirut temperature yesterday

Maximum temperature yesterday: 88 °F (at 2:00 PM)
Minimum temperature yesterday: 81 °F (at 12:00 AM)
Average temperature yesterday: 84 °F

Past Weeks' High & Low Weather Summary

 TemperatureHumidityPressure
High99 °F (Jul 24, 9:00 AM)84% (Jul 30, 1:00 AM)29.86 "Hg (Jul 30, 1:00 AM)
Low75 °F (Jul 22, 6:00 AM)22% (Jul 24, 7:00 AM)29.68 "Hg (Jul 20, 5:00 AM)
Average83 °F68%29.77 "Hg
* Reported Jul 18 4:00 PM — Aug 2 4:00 PM, Beirut, Weather by CustomWeather, © 2015

Note: Actual official high and low records may vary slightly from our data, if they occured in-between our weather recording intervals... More about our weather records

Advertising

Beirut weather history for previous 24 hours

 ConditionsComfort  
Time TempWeatherWind HumidityBarometerVisibility
4:00 PM
Sun, Aug 2
91 °FSunny.12 mph63%29.80 "Hg5 mi
3:00 PM91 °FSunny.13 mph63%29.80 "Hg5 mi
2:00 PM93 °FSunny.10 mph56%29.80 "Hg5 mi
1:00 PM91 °FSunny.12 mph59%29.80 "Hg5 mi
12:00 PM91 °FSunny.12 mph56%29.80 "Hg5 mi
11:00 AM91 °FSunny.9 mph59%29.80 "Hg5 mi
10:00 AM90 °FSunny.13 mph55%29.80 "Hg5 mi
9:00 AM88 °FPassing clouds.5 mph62%29.80 "Hg5 mi
8:00 AM84 °FPassing clouds.3 mph74%29.80 "Hg5 mi
7:00 AM81 °FFog.5 mph70%29.80 "Hg3 mi
6:00 AM82 °FFog.5 mph70%29.80 "Hg3 mi
5:00 AM81 °FFog.3 mph74%29.80 "Hg3 mi
4:00 AM81 °FPassing clouds.3 mph79%29.80 "Hg3 mi
3:00 AM82 °FFog.5 mph79%29.80 "Hg3 mi
2:00 AM84 °FFog.5 mph74%29.80 "Hg3 mi
1:00 AM82 °FFog.6 mph84%29.83 "Hg3 mi
12:00 AM82 °FFog.5 mph84%29.83 "Hg3 mi
11:00 PM
Sat, Aug 1
84 °FFog.6 mph79%29.83 "Hg3 mi
10:00 PM84 °FPassing clouds.7 mph74%29.83 "Hg4 mi
9:00 PM84 °FClear.6 mph79%29.80 "Hg4 mi
8:00 PM84 °FSunny.10 mph79%29.80 "Hg4 mi
7:00 PM86 °FSunny.9 mph70%29.77 "Hg4 mi
6:00 PM86 °FFog.7 mph70%29.80 "Hg3 mi
5:00 PM88 °FFog.7 mph66%29.80 "Hg3 mi
Weather by CustomWeather, © 2015

See weather overviewHow to use our weather pages